Location: Clatteringshaws Loch
(55.0508°N, 4.2860°W)
Time: 19:23:20
(UTC+01:00)

Amateur Radio Satellites - All Passes

Search period start: 21 October 2014 18:53
Search period end: 22 October 2014 18:53
Location: Clatteringshaws Loch, 55.0508°N, 4.2860°W

Satellite Date Start Highest point End Downlink Frequencies (MHz)
Time Altitude Azimuth
OPAL 21 Oct 18:54:50 18:59:52 73° 107° (ESE) 19:04:49 ?
STRAND 1 21 Oct 18:54:57 18:58:10 16° 86° (E) 19:01:21 ?
HO-68 21 Oct 18:55:18 19:00:50 25° 43° (NE) 19:06:22 435.675 MHz FM
KITSAT 1 21 Oct 19:03:04 19:10:38 40° 11° (N) 19:18:10 435.175 FM
ISS 21 Oct 19:14:36 19:17:43 37° 195° (SSW) 19:20:50 145.800 FM
SO-50 21 Oct 19:42:41 19:46:47 28° 11° (N) 19:50:57 436.795 FM
Hamsat 21 Oct 19:45:09 19:47:04 13° 275° (W) 19:48:58 145.90 MHz
UOSAT-12 21 Oct 19:45:28 19:49:37 29° 347° (NNW) 19:53:47 437.025 FM, 437.400 FM
Oscar 11 21 Oct 20:10:02 20:12:16 14° 51° (NE) 20:14:29 145.825 FM, Beacon 2401.500 USB
SO-67 21 Oct 20:26:43 20:29:14 19° 269° (W) 20:31:47 435.3500 MHz FM
STRAND 1 21 Oct 20:32:58 20:38:11 83° 106° (ESE) 20:43:21 ?
OPAL 21 Oct 20:34:18 20:38:21 25° 308° (NW) 20:42:22 ?
HO-68 21 Oct 20:40:25 20:47:33 73° 65° (ENE) 20:54:44 435.675 MHz FM
ZACube-1 21 Oct 20:48:02 20:50:46 16° 53° (NE) 20:53:28 437.345 MHz
ISS 21 Oct 20:51:50 20:53:48 15° 214° (SW) 20:55:46 145.800 FM
UKube-1 21 Oct 20:58:52 21:02:50 35° 63° (ENE) 21:06:50 145.840 MHz, 145.915 MHz
KITSAT 1 21 Oct 20:59:17 21:07:24 69° 38° (NE) 21:15:27 435.175 FM
Oscar 10/S400 21 Oct 21:05:59 21:37:12 36° 193° (SSW) 02:36:00 145.825 - 145.975 CW/USB, Beacon 145.810 USB
SO-50 21 Oct 21:23:29 21:28:13 56° 34° (NE) 21:33:00 436.795 FM
UOSAT-12 21 Oct 21:26:53 21:30:59 28° 11° (N) 21:35:05 437.025 FM, 437.400 FM
FUNcube-1 21 Oct 21:32:01 21:36:03 31° 62° (ENE) 21:40:02 145.950 - 145.970 MHz USB
Oscar 11 21 Oct 21:43:25 21:47:44 71° 71° (ENE) 21:52:04 145.825 FM, Beacon 2401.500 USB
RS-15 21 Oct 22:08:05 22:15:58 24° 101° (E) 22:23:49 29.354 - 29.394 USB, Beacon 29.352 USB
STRAND 1 21 Oct 22:12:53 22:16:51 23° 307° (NW) 22:20:49 ?
ZACube-1 21 Oct 22:21:54 22:26:30 77° 72° (ENE) 22:31:03 437.345 MHz
HO-68 21 Oct 22:29:37 22:35:54 32° 267° (W) 22:42:15 435.675 MHz FM
UKube-1 21 Oct 22:34:59 22:39:02 37° 263° (W) 22:43:07 145.840 MHz, 145.915 MHz
AO-40 21 Oct 22:45:00 00:10:08 14° 217° (SW) 02:07:31 Beacon 2401.320
KITSAT 1 21 Oct 22:55:00 23:02:36 47° 243° (WSW) 23:10:10 435.175 FM
SO-50 21 Oct 23:04:14 23:08:43 40° 235° (SW) 23:13:16 436.795 FM
UOSAT-12 21 Oct 23:07:19 23:12:01 56° 34° (NE) 23:16:39 437.025 FM, 437.400 FM
FUNcube-1 21 Oct 23:07:54 23:12:19 46° 261° (W) 23:16:42 145.950 - 145.970 MHz USB
Oscar 11 21 Oct 23:21:23 23:24:24 18° 271° (W) 23:27:27 145.825 FM, Beacon 2401.500 USB
ZACube-1 22 Oct 00:00:14 00:03:25 18° 272° (W) 00:06:36 437.345 MHz
RS-15 22 Oct 00:15:28 00:26:16 70° 126° (SE) 00:37:09 29.354 - 29.394 USB, Beacon 29.352 USB
UOSAT-12 22 Oct 00:47:41 00:52:06 39° 236° (SW) 00:56:26 437.025 FM, 437.400 FM
KITSAT 1 22 Oct 00:53:30 00:55:58 12° 265° (W) 00:58:27 435.175 FM
MaSat-1 22 Oct 01:31:02 01:34:57 46° 120° (ESE) 01:38:29 437.345 MHz
Oscar 16 22 Oct 01:51:27 01:55:18 21° 89° (E) 01:59:09 437.025 USB, Beacon 2401.1428
Uribyol 2 22 Oct 02:05:32 02:08:05 14° 83° (E) 02:10:38 436.500 FM
JAS-1B 22 Oct 02:06:34 02:11:52 28° 92° (E) 02:17:50 435.800 - 435.900 CW/SSB
ITAMSAT 1 22 Oct 02:10:30 02:13:15 14° 84° (E) 02:15:58 435.822 SSB
AO-Echo 22 Oct 02:14:43 02:18:33 20° 87° (E) 02:22:23 ?
RS-15 22 Oct 02:28:16 02:39:05 62° 336° (NNW) 02:50:06 29.354 - 29.394 USB, Beacon 29.352 USB
Oscar 19 22 Oct 02:44:56 02:49:56 50° 100° (E) 02:54:54 437.125 CW, 437.150 USB
AO-27 22 Oct 02:54:02 02:58:37 30° 93° (E) 03:03:11 436.795 MHz FM
OPAL 22 Oct 03:02:29 03:05:19 15° 43° (NE) 03:08:07 ?
MaSat-1 22 Oct 03:07:19 03:10:49 30° 318° (NW) 03:14:00 437.345 MHz
Oscar 16 22 Oct 03:30:07 03:35:16 77° 289° (WNW) 03:40:23 437.025 USB, Beacon 2401.1428
Uribyol 2 22 Oct 03:43:19 03:48:34 69° 104° (ESE) 03:53:46 436.500 FM
AO-7 22 Oct 03:46:05 03:50:32 15° 79° (E) 03:54:57 29.400 - 29.500 MHz
Gurwin Techsat 1B 22 Oct 03:48:02 03:53:09 44° 98° (E) 03:58:13 435.225 FM
ITAMSAT 1 22 Oct 03:48:27 03:53:43 72° 104° (ESE) 03:58:56 435.822 SSB
AO-Echo 22 Oct 03:52:41 03:57:58 85° 287° (WNW) 04:03:19 ?
JAS-1B 22 Oct 03:56:58 04:03:04 74° 291° (WNW) 04:10:14 435.800 - 435.900 CW/SSB
PCSat 22 Oct 03:59:29 04:00:43 11° 101° (E) 04:01:58 145.825 MHz
TMSAT-1 22 Oct 04:01:33 04:06:39 44° 98° (E) 04:11:42 436.925 FM
Oscar 19 22 Oct 04:24:35 04:29:10 34° 300° (WNW) 04:33:44 437.125 CW, 437.150 USB
AO-27 22 Oct 04:33:19 04:38:28 56° 294° (WNW) 04:43:34 436.795 MHz FM
OPAL 22 Oct 04:38:15 04:43:17 56° 64° (ENE) 04:48:16 ?
STRAND 1 22 Oct 04:42:06 04:44:12 13° 43° (NE) 04:46:18 ?
RS-15 22 Oct 04:42:52 04:53:33 53° 8° (N) 05:04:31 29.354 - 29.394 USB, Beacon 29.352 USB
MaSat-1 22 Oct 04:47:00 04:47:33 10° 339° (NNW) 04:48:05 437.345 MHz
Oscar 16 22 Oct 05:10:28 05:13:54 19° 310° (NW) 05:17:21 437.025 USB, Beacon 2401.1428
Sapphire 22 Oct 05:15:16 05:20:08 35° 116° (ESE) 05:25:02 437.095 MHz 1200 baud AX-25 AFSK
Uribyol 2 22 Oct 05:23:21 05:27:41 27° 305° (NW) 05:31:59 436.500 FM
Gurwin Techsat 1B 22 Oct 05:28:11 05:33:07 40° 298° (WNW) 05:38:02 435.225 FM
ITAMSAT 1 22 Oct 05:28:31 05:32:49 26° 305° (NW) 05:37:05 435.822 SSB
AO-Echo 22 Oct 05:32:18 05:36:07 21° 308° (NW) 05:39:58 ?
Uosat F 22 Oct 05:34:41 05:39:34 46° 99° (E) 05:44:25 435.120 FM
AO-7 22 Oct 05:37:09 05:45:20 57° 103° (ESE) 05:53:30 29.400 - 29.500 MHz
PCSat 22 Oct 05:37:43 05:42:56 51° 122° (ESE) 05:48:12 145.825 MHz
TMSAT-1 22 Oct 05:41:38 05:46:34 40° 298° (WNW) 05:51:29 436.925 FM
Hamsat 22 Oct 05:46:39 05:47:56 11° 84° (E) 05:49:13 145.90 MHz
JAS-2 22 Oct 05:46:51 05:53:25 31° 89° (E) 06:00:09 435.800 - 435.900 CW/SSB, 435.910 FM
JAS-1B 22 Oct 05:48:42 05:53:02 21° 312° (NW) 05:57:46 435.800 - 435.900 CW/SSB
AO-27 22 Oct 06:14:10 06:17:00 15° 315° (NW) 06:19:49 436.795 MHz FM
STRAND 1 22 Oct 06:17:22 06:22:16 47° 64° (ENE) 06:27:13 ?
OPAL 22 Oct 06:17:57 06:22:27 30° 263° (W) 06:26:56 ?
RS-15 22 Oct 06:56:20 07:07:26 81° 39° (NE) 07:18:56 29.354 - 29.394 USB, Beacon 29.352 USB
Sapphire 22 Oct 06:57:58 07:03:21 63° 318° (NW) 07:08:47 437.095 MHz 1200 baud AX-25 AFSK
Gurwin Techsat 1B 22 Oct 07:10:22 07:11:48 11° 320° (NW) 07:13:14 435.225 FM
Uosat F 22 Oct 07:13:41 07:18:18 36° 300° (WNW) 07:22:52 435.120 FM
Hamsat 22 Oct 07:20:28 07:24:40 75° 103° (ESE) 07:28:52 145.90 MHz
PCSat 22 Oct 07:21:15 07:26:29 47° 324° (NW) 07:31:46 145.825 MHz
TMSAT-1 22 Oct 07:23:45 07:25:12 11° 320° (NW) 07:26:39 436.925 FM
AO-7 22 Oct 07:30:13 07:38:08 51° 306° (NW) 07:46:03 29.400 - 29.500 MHz
JAS-2 22 Oct 07:31:36 07:39:08 83° 289° (WNW) 07:47:01 435.800 - 435.900 CW/SSB, 435.910 FM
SO-67 22 Oct 07:42:13 07:44:53 20° 92° (E) 07:47:32 435.3500 MHz FM
STRAND 1 22 Oct 07:56:56 08:01:38 35° 264° (W) 08:06:22 ?
MaSat-1 22 Oct 08:00:27 08:02:05 13° 28° (NNE) 08:03:37 437.345 MHz
Saudisat 1A 22 Oct 08:30:24 08:33:06 16° 114° (ESE) 08:35:50 436.775 MHz
Sapphire 22 Oct 08:43:09 08:47:46 28° 342° (NNW) 08:52:25 437.095 MHz 1200 baud AX-25 AFSK
Hamsat 22 Oct 08:57:16 09:00:11 19° 303° (WNW) 09:03:06 145.90 MHz
PCSat 22 Oct 09:06:42 09:11:09 25° 349° (N) 09:15:36 145.825 MHz
RS-15 22 Oct 09:08:58 09:19:10 45° 246° (WSW) 09:29:44 29.354 - 29.394 USB, Beacon 29.352 USB
SO-67 22 Oct 09:14:46 09:18:03 41° 291° (WNW) 09:21:19 435.3500 MHz FM
JAS-2 22 Oct 09:17:16 09:23:21 29° 310° (NW) 09:29:44 435.800 - 435.900 CW/SSB, 435.910 FM
AO-7 22 Oct 09:23:26 09:29:14 22° 331° (NNW) 09:35:03 29.400 - 29.500 MHz
MaSat-1 22 Oct 09:35:28 09:38:27 75° 52° (NE) 09:41:05 437.345 MHz
HO-68 22 Oct 09:47:53 09:54:35 39° 96° (E) 10:01:13 435.675 MHz FM
Saudisat 1A 22 Oct 10:07:37 10:12:01 78° 135° (SE) 10:16:28 436.775 MHz
UKube-1 22 Oct 10:15:57 10:19:30 23° 92° (E) 10:23:01 145.840 MHz, 145.915 MHz
Sapphire 22 Oct 10:28:27 10:32:51 24° 8° (N) 10:37:14 437.095 MHz 1200 baud AX-25 AFSK
FUNcube-1 22 Oct 10:50:13 10:53:38 22° 90° (E) 10:56:59 145.950 - 145.970 MHz USB
PCSat 22 Oct 10:51:41 10:56:14 26° 15° (NNE) 11:00:46 145.825 MHz
Oscar 11 22 Oct 10:59:57 11:04:12 53° 100° (E) 11:08:25 145.825 FM, Beacon 2401.500 USB
JAS-2 22 Oct 11:03:58 11:06:13 12° 333° (NNW) 11:08:31 435.800 - 435.900 CW/SSB, 435.910 FM
JAS-1B 22 Oct 11:14:49 11:16:52 12° 36° (NE) 11:18:56 435.800 - 435.900 CW/SSB
AO-7 22 Oct 11:15:13 11:19:09 14° 358° (N) 11:23:04 29.400 - 29.500 MHz
RS-15 22 Oct 11:25:28 11:28:16 11° 271° (W) 11:31:06 29.354 - 29.394 USB, Beacon 29.352 USB
HO-68 22 Oct 11:35:36 11:42:41 62° 298° (WNW) 11:49:44 435.675 MHz FM
Oscar 16 22 Oct 11:38:55 11:41:48 15° 46° (NE) 11:44:40 437.025 USB, Beacon 2401.1428
ZACube-1 22 Oct 11:40:29 11:44:49 60° 101° (ESE) 11:49:01 437.345 MHz
KITSAT 1 22 Oct 11:41:47 11:44:27 12° 95° (E) 11:47:08 435.175 FM
Saudisat 1A 22 Oct 11:47:57 11:52:00 34° 337° (NNW) 11:56:04 436.775 MHz
UKube-1 22 Oct 11:51:42 11:56:01 55° 292° (WNW) 12:00:17 145.840 MHz, 145.915 MHz
Uribyol 2 22 Oct 11:54:34 11:56:13 11° 40° (NE) 11:57:51 436.500 FM
AO-Echo 22 Oct 11:59:35 12:01:34 12° 43° (NE) 12:03:34 ?
ITAMSAT 1 22 Oct 11:59:36 12:01:24 12° 41° (NE) 12:03:13 435.822 SSB
Sapphire 22 Oct 12:12:26 12:17:37 42° 33° (NNE) 12:22:47 437.095 MHz 1200 baud AX-25 AFSK
FUNcube-1 22 Oct 12:26:07 12:30:24 56° 291° (WNW) 12:34:33 145.950 - 145.970 MHz USB
Oscar 19 22 Oct 12:30:47 12:35:13 30° 58° (ENE) 12:39:39 437.125 CW, 437.150 USB
PCSat 22 Oct 12:35:24 12:40:46 55° 39° (NE) 12:46:06 145.825 MHz
Oscar 11 22 Oct 12:36:36 12:40:10 25° 300° (WNW) 12:43:42 145.825 FM, Beacon 2401.500 USB
AO-27 22 Oct 12:41:47 12:45:35 21° 51° (NE) 12:49:23 436.795 MHz FM
JAS-1B 22 Oct 13:00:43 13:06:10 43° 61° (ENE) 13:11:31 435.800 - 435.900 CW/SSB
AO-7 22 Oct 13:03:31 13:08:57 20° 25° (NNE) 13:14:24 29.400 - 29.500 MHz
Oscar 16 22 Oct 13:15:10 13:20:14 60° 68° (ENE) 13:25:20 437.025 USB, Beacon 2401.1428
ZACube-1 22 Oct 13:17:27 13:20:53 23° 302° (WNW) 13:24:15 437.345 MHz
HO-68 22 Oct 13:24:02 13:29:11 22° 321° (NW) 13:34:21 435.675 MHz FM
SO-50 22 Oct 13:28:16 13:30:06 12° 110° (ESE) 13:31:58 436.795 FM
Saudisat 1A 22 Oct 13:29:02 13:32:40 24° 1° (N) 13:36:17 436.775 MHz
Uribyol 2 22 Oct 13:29:34 13:34:27 41° 62° (ENE) 13:39:22 436.500 FM
UKube-1 22 Oct 13:29:42 13:31:20 12° 313° (NW) 13:32:58 145.840 MHz, 145.915 MHz
KITSAT 1 22 Oct 13:30:15 13:37:51 47° 118° (ESE) 13:45:29 435.175 FM
AO-Echo 22 Oct 13:34:29 13:39:12 48° 65° (ENE) 13:44:06 ?
ITAMSAT 1 22 Oct 13:34:48 13:39:42 43° 63° (ENE) 13:44:38 435.822 SSB
Gurwin Techsat 1B 22 Oct 13:37:43 13:42:13 29° 57° (ENE) 13:46:44 435.225 FM
TMSAT-1 22 Oct 13:50:57 13:55:25 28° 56° (ENE) 13:59:54 436.925 FM
Sapphire 22 Oct 13:55:57 14:01:20 61° 236° (SW) 14:06:40 437.095 MHz 1200 baud AX-25 AFSK
FUNcube-1 22 Oct 14:04:25 14:05:53 12° 312° (NW) 14:07:20 145.950 - 145.970 MHz USB
Oscar 19 22 Oct 14:09:14 14:14:19 59° 258° (WSW) 14:19:26 437.125 CW, 437.150 USB
PCSat 22 Oct 14:19:02 14:24:08 42° 241° (WSW) 14:29:11 145.825 MHz
AO-27 22 Oct 14:19:14 14:24:28 86° 72° (ENE) 14:29:45 436.795 MHz FM
JAS-2 22 Oct 14:28:19 14:30:03 11° 25° (NNE) 14:31:50 435.800 - 435.900 CW/SSB, 435.910 FM
JAS-1B 22 Oct 14:51:33 14:57:02 40° 263° (W) 15:02:24 435.800 - 435.900 CW/SSB
AO-7 22 Oct 14:52:11 14:59:51 44° 51° (NE) 15:07:33 29.400 - 29.500 MHz
Oscar 16 22 Oct 14:55:35 14:59:58 27° 268° (W) 15:04:22 437.025 USB, Beacon 2401.1428
SO-50 22 Oct 15:05:15 15:09:44 60° 130° (SE) 15:14:22 436.795 FM
UOSAT-12 22 Oct 15:08:03 15:09:48 12° 109° (ESE) 15:11:33 437.025 FM, 437.400 FM
Uribyol 2 22 Oct 15:09:02 15:13:58 41° 262° (W) 15:18:57 436.500 FM
Saudisat 1A 22 Oct 15:09:12 15:13:18 35° 24° (NNE) 15:17:24 436.775 MHz
HO-68 22 Oct 15:13:14 15:14:24 10° 346° (NNW) 15:15:33 435.675 MHz FM
AO-Echo 22 Oct 15:13:44 15:18:10 33° 266° (W) 15:22:46 ?
ISS 22 Oct 15:13:46 15:16:11 19° 150° (SSE) 15:18:37 145.800 FM
ITAMSAT 1 22 Oct 15:14:23 15:19:16 40° 263° (W) 15:24:12 435.822 SSB
Gurwin Techsat 1B 22 Oct 15:16:35 15:21:52 65° 257° (WSW) 15:27:11 435.225 FM
Uosat F 22 Oct 15:17:31 15:21:43 28° 56° (ENE) 15:25:57 435.120 FM
KITSAT 1 22 Oct 15:25:01 15:33:05 68° 322° (NW) 15:41:11 435.175 FM
TMSAT-1 22 Oct 15:29:44 15:35:00 66° 257° (WSW) 15:40:20 436.925 FM
Sapphire 22 Oct 15:41:09 15:43:43 14° 256° (WSW) 15:46:17 437.095 MHz 1200 baud AX-25 AFSK
Oscar 19 22 Oct 15:53:21 15:54:48 11° 279° (W) 15:56:15 437.125 CW, 437.150 USB
AO-27 22 Oct 16:01:01 16:04:42 19° 272° (W) 16:08:24 436.795 MHz FM
JAS-2 22 Oct 16:07:40 16:12:53 29° 50° (NE) 16:18:39 435.800 - 435.900 CW/SSB, 435.910 FM
AO-7 22 Oct 16:44:11 16:52:25 66° 254° (WSW) 17:00:42 29.400 - 29.500 MHz
UOSAT-12 22 Oct 16:44:25 16:49:00 57° 130° (SE) 16:53:40 437.025 FM, 437.400 FM
Hamsat 22 Oct 16:45:58 16:49:09 21° 59° (ENE) 16:52:21 145.90 MHz
SO-50 22 Oct 16:46:09 16:50:32 41° 333° (NNW) 16:55:03 436.795 FM
Saudisat 1A 22 Oct 16:48:48 16:53:14 73° 227° (SW) 16:57:38 436.775 MHz
ISS 22 Oct 16:49:11 16:52:22 41° 170° (S) 16:55:33 145.800 FM
Uosat F 22 Oct 16:55:12 17:00:12 64° 257° (WSW) 17:05:15 435.120 FM
HO-68 22 Oct 16:57:59 16:59:02 10° 13° (NNE) 17:00:05 435.675 MHz FM
Gurwin Techsat 1B 22 Oct 17:00:38 17:02:56 13° 278° (W) 17:05:15 435.225 FM
TMSAT-1 22 Oct 17:13:36 17:16:00 13° 278° (W) 17:18:24 436.925 FM
KITSAT 1 22 Oct 17:22:19 17:29:51 40° 349° (N) 17:37:24 435.175 FM
JAS-2 22 Oct 17:51:09 17:57:13 85° 254° (WSW) 18:04:12 435.800 - 435.900 CW/SSB, 435.910 FM
OPAL 22 Oct 18:19:45 18:24:28 40° 100° (E) 18:29:06 ?
Hamsat 22 Oct 18:20:36 18:24:47 63° 258° (WSW) 18:28:58 145.90 MHz
SO-67 22 Oct 18:21:43 18:24:27 23° 63° (ENE) 18:27:13 435.3500 MHz FM
UOSAT-12 22 Oct 18:24:51 18:29:22 43° 332° (NNW) 18:33:55 437.025 FM, 437.400 FM
ISS 22 Oct 18:25:34 18:28:46 42° 189° (S) 18:31:57 145.800 FM
SO-50 22 Oct 18:28:12 18:32:10 26° 357° (N) 18:36:12 436.795 FM
Saudisat 1A 22 Oct 18:29:35 18:32:06 15° 247° (WSW) 18:34:36 436.775 MHz
Uosat F 22 Oct 18:38:10 18:40:02 12° 277° (W) 18:41:55 435.120 FM
HO-68 22 Oct 18:39:07 18:44:13 22° 39° (NE) 18:49:20 435.675 MHz FM
AO-7 22 Oct 18:41:32 18:46:55 19° 277° (W) 18:52:21 29.400 - 29.500 MHz
